Location: Bieujac
(44.5398°N, 0.1549°W)
Time: 21:37:02
(UTC+00:00)

Abrixas rocket - Pass Details

Date: 17 November 2019
Orbit: 357 x 366 km, 48.4° (Epoch: 14 December)

Event Time Altitude Azimuth Distance (km) Brightness Sun altitude
Exits shadow 05:59:25 - 238° (WSW) 1,436 4.6 -10.7°
Reaches altitude 10° 05:59:40 10° 237° (WSW) 1,332 4.4 -10.7°
Maximum altitude 06:02:38 68° 155° (SSE) 389 2.2 -10.2°
Drops below altitude 10° 06:05:37 10° 71° (ENE) 1,343 5.7 -9.7°
Sets 06:07:40 0° 69° (ENE) 2,194 6.8 -9.3°
